Theta_e
311 311 311 310 311 310 310 312 313 314 315 315 315 317 318 319 319 319 320 319 319 318 316 314 313 312 308 304 303 306 308 308 307 309 311 309 300 303 313 321 324 325 326 325 325 325 326 326 325 326 326 327 326 326 326 327 334 340 343 342 342 345 344 346 343 336 334 333 335 332 331 333 330 330 327 327 333 332 328 331 337 339 335 334 333 331 332 334
310 310 310 311 312 311 310 310 311 313 314 314 314 315 317 318 319 319 320 320 319 319 317 316 314 313 309 305 305 307 309 309 310 312 311 305 303 305 306 312 318 323 325 324 326 326 328 330 326 327 328 329 328 326 328 329 331 340 343 340 341 346 347 344 338 333 332 332 334 332 331 332 329 328 328 329 334 333 328 330 339 348 339 333 332 332 333 333
310 310 310 310 311 312 311 310 311 312 313 314 314 314 315 316 318 319 319 320 320 319 319 318 317 315 311 307 306 309 309 311 314 314 309 309 311 310 308 307 311 319 322 322 325 325 327 328 325 328 330 330 333 328 330 331 330 339 342 338 342 345 344 340 333 330 332 331 334 335 332 333 331 328 329 332 334 334 332 333 338 347 346 336 333 331 332 332
309 310 310 310 310 311 311 310 311 312 312 314 314 314 314 315 316 318 319 320 319 320 319 319 318 316 312 309 308 309 311 311 316 316 313 317 317 317 317 311 309 315 320 321 324 325 324 324 324 329 329 331 337 330 330 333 330 334 335 340 348 342 338 339 332 329 332 332 334 337 335 334 332 329 332 333 333 335 334 335 337 344 349 340 334 332 331 331
308 309 309 309 310 310 311 311 311 311 312 313 314 314 314 315 315 316 318 319 320 319 319 319 319 317 313 310 309 310 310 308 314 318 318 319 316 317 320 318 313 313 318 320 323 324 323 323 325 329 330 333 335 330 333 334 328 331 334 339 345 337 333 338 333 329 331 331 334 335 333 333 331 331 335 333 334 340 335 331 334 341 347 340 335 332 330 330
308 308 309 309 309 310 310 311 311 311 311 312 314 314 314 315 315 315 317 318 320 319 319 319 320 318 313 310 311 311 311 311 315 320 320 319 316 316 320 322 318 313 315 319 321 322 323 324 327 331 332 333 333 331 335 332 326 331 334 334 337 333 331 333 331 329 329 328 330 331 331 333 333 334 335 332 336 343 338 331 334 338 339 335 333 332 332 332
308 308 308 308 309 309 310 310 310 311 311 312 313 314 314 315 315 315 316 317 319 319 319 319 319 319 314 312 313 313 316 316 315 319 320 319 317 317 320 322 320 315 314 317 320 322 326 328 329 333 332 333 335 333 333 330 327 328 332 335 332 331 331 330 329 329 328 327 331 331 330 332 333 335 335 333 336 340 335 328 327 330 331 333 333 332 333 332
308 308 308 308 308 309 309 309 310 311 311 312 312 313 314 315 316 315 315 316 318 319 319 319 319 319 316 313 314 316 318 315 311 319 319 318 319 317 321 323 320 319 317 318 321 321 326 328 329 331 331 335 333 332 332 329 329 328 332 335 328 328 330 330 330 330 328 326 330 331 330 333 335 334 332 334 337 339 335 326 326 332 333 334 335 335 332 331
307 307 307 308 308 309 309 309 309 310 310 311 312 312 313 314 315 316 315 315 316 318 319 319 319 319 317 315 314 315 315 311 309 318 319 319 319 314 318 322 321 321 319 318 319 319 324 328 330 329 330 334 329 329 332 330 333 331 330 331 326 326 328 328 327 328 329 327 327 328 330 335 335 331 330 335 336 337 337 331 331 339 341 338 336 334 332 332
306 307 307 308 308 309 309 309 310 310 310 311 311 311 312 314 315 316 315 315 316 316 317 319 319 319 317 315 314 313 312 309 309 314 316 317 316 311 313 318 321 321 320 319 318 318 322 325 327 325 325 329 325 327 330 330 333 330 325 326 325 326 326 326 325 328 330 328 328 327 328 331 331 329 329 333 336 335 335 333 333 335 341 341 337 334 331 331
306 306 306 307 307 308 309 309 310 310 310 310 311 311 311 312 314 315 315 315 316 315 316 318 319 318 317 315 314 313 311 309 311 312 313 313 313 311 310 314 320 322 319 319 318 318 320 321 322 321 322 325 324 325 327 327 327 325 324 325 326 326 325 325 324 328 328 328 330 327 328 329 328 330 328 331 337 335 334 335 335 333 334 335 335 334 332 330
305 306 306 306 307 307 308 309 309 309 310 310 311 311 311 311 313 313 314 314 315 315 316 317 318 318 317 316 313 313 311 310 312 314 315 315 314 312 309 311 319 322 320 319 318 318 319 320 320 323 324 324 325 323 323 324 323 324 325 325 329 327 325 327 326 328 326 327 330 326 328 329 327 329 328 332 337 336 335 335 335 334 332 331 331 330 330 331
305 305 305 306 306 306 307 308 308 309 309 310 310 311 311 311 312 313 313 313 314 315 316 316 317 317 318 318 314 314 314 311 312 315 317 319 318 314 311 314 320 321 319 318 319 319 320 323 322 324 325 326 328 323 321 324 323 324 324 325 328 327 328 329 326 327 325 327 330 327 329 330 328 328 327 330 333 333 334 333 332 332 331 330 330 329 328 327
304 304 305 305 305 305 306 307 308 308 308 309 309 310 311 311 311 312 313 313 313 315 316 315 317 317 318 318 314 315 317 314 312 314 318 320 320 317 313 317 322 320 319 320 321 323 324 325 323 323 325 327 328 325 327 330 327 326 325 325 327 329 334 331 325 327 325 326 329 327 328 329 327 328 328 329 330 331 332 331 330 329 328 328 329 329 329 325
304 304 304 305 305 305 306 306 306 308 308 308 309 310 310 310 311 312 313 314 314 314 316 316 317 317 318 318 314 315 316 314 312 313 316 318 317 318 315 317 322 323 323 323 323 325 326 325 325 326 327 326 325 328 333 333 331 329 326 329 329 328 332 329 326 327 325 325 326 326 329 330 327 326 326 327 328 329 330 329 329 328 328 327 326 327 328 325
303 304 304 304 305 305 305 305 306 307 308 308 308 309 310 310 311 311 312 313 314 314 316 317 317 317 318 318 315 314 314 312 312 313 315 315 315 318 317 315 318 322 325 324 324 325 325 326 326 327 327 326 326 330 333 330 332 331 327 330 332 329 328 327 327 327 325 325 324 324 328 330 330 330 327 324 325 326 327 328 327 327 327 326 326 325 325 325
303 303 303 304 304 305 305 305 305 306 307 308 308 308 309 310 310 311 312 313 313 314 315 316 316 317 317 315 314 313 312 312 312 313 314 314 314 317 318 316 317 321 324 324 324 324 325 327 326 325 327 328 328 330 331 328 330 331 327 329 333 331 329 328 328 326 323 324 324 323 324 324 325 328 327 325 325 324 324 326 326 326 326 326 326 325 325 325
302 303 303 304 304 304 305 304 305 306 307 307 307 308 308 309 309 310 311 311 313 313 314 314 314 317 317 315 314 313 312 312 312 312 313 314 313 315 319 320 321 323 325 324 324 325 326 327 327 327 329 328 326 327 328 326 326 329 328 327 329 329 328 327 327 324 322 322 323 323 323 322 321 321 321 324 326 324 324 325 324 325 325 325 325 325 326 325
302 303 303 303 303 304 304 304 305 306 307 307 306 307 308 308 308 309 309 310 312 312 314 315 314 316 317 315 314 313 312 312 312 312 313 313 313 315 319 321 322 323 325 326 325 326 327 327 327 326 327 326 325 325 325 324 324 325 325 325 326 326 326 325 324 323 322 322 323 322 321 321 321 321 320 321 323 325 325 324 324 324 323 324 326 326 326 327
302 302 302 303 303 304 304 304 305 306 306 306 306 306 308 308 308 309 309 309 311 312 314 315 314 315 315 314 314 313 313 313 313 313 313 313 314 316 320 321 323 323 324 325 326 326 325 326 327 325 323 323 323 324 323 323 323 322 322 323 324 326 325 323 322 322 321 322 322 320 320 319 318 319 319 319 321 323 324 324 324 324 324 325 327 327 326 328
301 302 302 302 303 304 304 304 305 305 306 306 306 306 307 308 308 309 310 310 310 311 312 313 313 314 314 314 314 312 313 314 313 314 313 313 314 318 320 322 324 324 323 324 325 325 326 327 326 323 322 322 322 323 323 322 321 321 323 322 323 323 323 322 322 322 320 321 322 321 321 320 318 319 318 318 320 322 322 323 324 324 325 326 327 328 326 325
301 302 302 302 302 303 304 304 305 305 306 306 306 306 306 308 308 308 309 310 309 309 311 312 312 313 313 314 313 313 315 315 314 315 313 314 316 317 319 322 324 324 321 323 324 326 328 328 326 323 324 325 324 323 323 322 321 321 322 322 323 323 322 323 324 322 319 320 324 325 322 320 319 320 320 320 321 322 322 323 324 325 327 326 325 326 326 325
301 302 302 302 302 303 303 304 304 305 305 305 306 306 306 307 307 307 308 309 309 309 310 310 311 312 313 314 313 313 315 315 314 315 314 315 317 317 319 321 323 322 321 322 323 325 326 325 324 323 325 326 326 324 323 324 322 320 321 322 324 324 323 325 326 323 320 320 323 324 322 320 320 321 321 321 321 321 323 323 323 325 326 326 325 325 325 325
301 301 302 302 302 302 303 304 304 305 305 305 306 305 306 307 307 307 308 308 309 310 309 309 310 311 312 313 313 313 315 315 315 315 314 315 316 317 319 320 320 320 321 321 321 322 322 322 323 323 324 325 326 325 324 324 324 322 321 321 322 323 324 325 326 325 324 322 321 322 323 321 320 321 320 320 321 320 320 322 323 324 325 326 325 325 325 324
301 301 302 302 302 303 303 303 303 304 305 305 305 305 306 306 306 307 307 308 309 308 308 309 310 310 312 313 312 313 315 315 315 314 313 315 316 317 318 317 318 319 319 319 320 321 320 320 322 323 323 324 324 325 325 324 325 324 323 322 322 324 324 324 325 325 327 328 325 324 325 323 322 323 321 318 320 320 319 321 322 323 325 324 324 324 323 323
300 301 302 302 302 303 302 302 302 303 304 304 304 305 305 306 306 306 307 308 308 308 310 310 310 311 311 312 312 312 314 315 314 314 313 315 314 315 317 316 316 317 317 318 319 319 319 320 322 323 323 324 324 325 324 324 326 325 325 324 323 324 325 325 325 326 328 329 328 324 322 322 321 324 326 322 321 321 321 322 323 323 322 322 322 321 321 321
301 301 302 302 301 302 302 301 302 303 304 304 304 305 305 305 305 305 307 309 309 310 311 310 309 310 310 312 312 312 315 316 314 314 313 314 314 314 317 316 315 315 314 316 318 319 319 320 322 322 322 323 323 323 323 324 326 326 327 326 324 324 325 326 326 328 328 327 328 325 323 324 322 324 330 328 325 326 325 324 324 322 320 321 320 320 320 319
301 301 301 301 301 302 301 302 303 303 303 304 304 304 305 305 304 305 308 308 310 310 311 310 309 309 310 312 312 312 315 316 316 315 313 313 315 314 316 316 315 314 313 316 318 317 317 319 321 321 322 322 322 322 322 323 324 326 328 327 325 323 325 326 327 328 327 326 327 325 324 327 325 324 325 325 325 327 327 327 325 323 322 322 321 320 319 319
301 301 301 301 302 302 301 302 303 303 303 304 304 304 305 306 305 307 308 309 311 311 310 310 310 310 312 313 312 312 314 315 316 315 313 313 314 314 315 315 314 314 313 315 316 314 315 317 318 320 321 321 320 320 321 322 322 326 328 326 325 324 324 326 328 328 326 327 328 325 325 327 326 324 323 323 323 324 324 324 323 323 323 322 321 320 319 319
301 301 301 301 302 301 301 302 302 302 303 304 304 305 305 305 306 309 309 309 311 312 310 310 309 310 313 314 313 312 312 314 315 315 314 313 313 313 315 314 313 313 312 314 314 313 314 314 315 317 318 319 319 319 320 322 323 325 326 324 325 326 325 326 327 327 327 329 327 325 325 325 324 325 323 323 325 325 322 321 321 321 321 321 320 319 318 318
301 301 301 301 301 301 301 302 302 302 303 304 304 304 305 305 307 308 309 309 310 311 310 309 309 311 313 313 314 313 312 314 314 314 314 313 312 313 315 314 313 313 312 313 313 312 312 313 317 318 315 316 318 317 316 321 323 324 325 325 326 325 324 325 326 326 328 329 326 325 325 325 325 325 321 322 325 323 320 321 321 320 320 320 319 319 317 318
301 300 300 301 301 301 301 301 301 302 303 303 304 304 305 306 307 307 308 309 309 309 309 308 310 312 312 312 314 313 312 313 314 314 314 314 313 314 315 314 314 314 314 313 313 313 312 313 318 320 316 314 316 316 316 320 322 322 324 325 325 325 325 326 326 327 327 325 323 325 326 326 325 323 320 321 323 321 319 320 321 321 321 321 321 321 319 319
301 301 301 301 301 301 301 301 301 302 302 303 304 305 305 306 307 307 308 307 306 306 308 309 311 312 311 312 313 312 312 313 314 314 314 314 314 315 315 314 313 314 315 313 313 314 313 313 314 316 317 315 314 315 317 319 320 320 322 324 323 324 326 326 325 325 324 322 321 323 325 325 325 321 319 320 320 320 319 319 322 322 322 322 321 320 320 320
300 301 301 301 301 301 301 301 302 302 302 303 303 305 306 305 306 306 307 306 306 307 309 310 311 312 312 312 312 312 313 313 314 314 314 314 314 315 315 315 314 313 314 314 313 314 314 315 313 312 316 316 313 312 315 318 320 318 319 321 321 322 322 323 322 321 321 319 319 320 322 325 325 320 319 320 319 318 318 318 319 318 318 319 319 319 320 320
300 301 301 301 301 301 301 301 302 301 302 303 303 305 305 305 305 306 306 306 308 309 309 311 312 312 312 312 311 312 313 313 314 314 315 314 314 314 315 315 315 313 314 314 314 313 314 316 315 312 314 316 314 312 314 317 319 319 318 319 320 320 321 324 323 319 318 318 318 320 323 324 322 317 318 321 320 319 318 318 318 318 319 321 321 323 323 321
301 301 301 301 301 301 301 301 301 301 302 303 304 305 305 305 305 306 306 305 308 310 310 312 312 311 312 312 312 312 313 313 314 315 315 314 313 314 314 314 314 313 313 314 315 314 314 315 315 311 313 316 315 313 314 316 318 319 319 320 320 320 321 323 321 316 318 319 319 320 322 322 319 317 318 320 320 319 319 318 318 320 322 324 324 324 325 323
302 301 301 301 301 301 301 301 301 302 302 303 304 305 305 305 305 307 307 305 309 312 311 310 311 311 312 312 312 312 312 313 314 314 315 314 314 314 313 314 314 313 313 313 314 315 314 314 313 311 312 314 314 315 315 316 320 321 319 319 320 320 322 322 319 317 319 320 319 319 319 318 319 320 320 320 319 319 319 320 320 319 321 324 324 322 324 324
302 301 301 301 301 301 301 301 301 301 302 303 303 304 305 305 305 306 307 306 308 311 309 309 310 311 312 312 311 312 312 313 313 314 315 314 314 313 313 314 313 313 313 312 315 317 314 314 314 312 312 313 315 317 317 317 319 320 319 319 319 320 322 322 320 319 319 318 318 319 318 317 319 319 319 321 321 320 320 320 320 320 321 323 323 323 324 325
301 301 301 301 301 301 301 301 301 301 302 303 303 303 304 304 304 305 305 305 306 308 308 308 309 310 311 312 312 312 312 313 314 314 314 314 314 313 313 314 313 313 313 312 314 317 314 313 316 313 310 314 317 317 318 317 316 317 320 320 319 320 321 321 320 318 318 318 317 318 318 318 319 319 318 320 321 322 323 322 322 322 323 323 321 321 323 324
301 301 302 301 300 301 301 301 301 302 302 302 302 303 304 303 304 305 305 304 305 307 307 307 308 309 310 311 311 311 312 312 313 314 314 314 314 314 313 313 314 313 313 312 313 315 313 312 315 313 311 314 317 317 317 317 316 317 321 319 317 320 321 321 321 319 318 318 317 317 317 317 320 321 318 317 319 322 325 324 322 323 324 324 321 318 319 321
301 302 302 301 301 301 301 301 301 302 302 302 302 303 302 302 303 305 305 304 304 306 306 306 308 309 309 310 310 310 311 312 312 313 313 314 314 314 313 312 313 313 313 313 312 312 313 312 313 315 313 312 314 315 315 316 316 317 319 318 317 319 320 320 320 320 319 318 317 317 316 319 325 323 317 316 318 321 324 323 321 323 323 323 321 317 315 316
301 302 302 301 301 301 301 301 302 302 302 302 302 302 302 302 303 304 304 303 303 305 306 306 308 307 308 310 310 310 311 311 312 312 312 313 313 314 313 313 313 313 313 313 312 311 314 316 313 314 314 312 313 315 315 315 315 316 317 317 316 317 319 319 318 319 320 319 318 319 319 322 328 328 322 321 320 321 323 322 321 322 321 319 317 314 313 313
301 302 302 301 301 301 301 301 302 302 301 301 302 302 302 303 303 303 304 304 303 304 304 305 308 308 307 308 308 309 310 311 312 312 312 312 312 312 313 313 312 313 312 313 312 311 313 315 313 313 315 314 314 317 316 314 313 315 316 316 316 316 317 319 319 319 321 320 319 321 319 318 323 328 326 324 322 320 321 322 321 319 317 316 313 312 313 314
301 301 301 301 301 301 301 302 302 302 301 301 302 302 302 302 303 303 304 304 304 304 303 304 307 308 307 307 308 308 310 311 311 311 312 312 312 313 314 313 312 312 312 313 313 311 312 312 312 314 315 314 315 317 316 314 312 313 315 315 315 316 316 317 318 316 317 319 319 320 318 317 322 325 321 320 319 317 318 318 316 315 314 314 314 312 313 314
300 300 300 301 301 301 301 301 302 302 301 301 302 302 301 301 302 304 304 304 303 304 304 304 306 308 308 308 308 307 307 309 311 311 311 312 312 313 314 313 312 312 312 313 313 311 312 312 312 313 313 314 316 316 316 314 313 313 315 314 314 315 315 316 317 316 316 318 318 318 318 317 319 319 316 315 316 315 316 314 311 312 312 312 314 314 314 314
301 302 301 302 301 301 300 300 301 301 301 301 301 301 301 302 303 303 304 304 304 304 304 304 305 307 307 308 308 306 305 306 309 309 308 310 311 312 312 313 312 311 312 314 313 312 313 313 312 313 313 313 314 315 315 315 314 314 314 314 313 314 314 315 316 316 316 317 317 316 316 315 314 312 312 314 315 315 315 312 310 311 311 311 314 315 312 311
302 303 303 303 302 301 301 300 300 301 301 301 301 301 301 301 302 303 303 303 304 304 304 304 305 305 306 307 307 307 307 307 307 307 307 308 310 311 311 311 312 312 313 314 313 312 313 313 313 313 313 312 313 315 316 315 314 314 313 313 313 313 313 314 315 315 314 315 315 314 313 314 312 309 310 312 313 314 312 312 313 312 311 312 313 312 309 307
302 303 303 302 302 302 301 301 301 301 301 301 301 301 301 301 301 302 303 303 304 304 304 304 305 305 305 306 306 307 308 309 308 308 308 309 310 311 311 311 311 311 312 312 312 312 312 312 312 313 313 312 312 314 317 315 314 314 314 313 312 312 313 313 314 313 313 314 313 312 312 312 310 310 309 308 310 311 312 314 315 313 313 315 315 313 311 308
300 301 301 300 302 303 302 302 301 300 300 301 301 301 301 301 301 302 303 303 303 304 304 304 304 304 304 305 306 306 307 309 309 308 309 309 310 310 310 311 311 311 311 311 310 310 312 312 312 312 312 312 312 313 315 315 314 314 314 313 312 312 312 312 312 312 312 312 312 311 311 310 309 309 309 308 310 312 314 316 315 312 316 319 319 318 315 311
301 302 301 301 302 303 302 302 301 300 300 301 301 301 301 301 301 301 302 303 303 303 304 304 304 304 305 305 305 305 306 307 308 308 309 310 309 309 310 311 312 311 310 310 310 310 311 312 312 311 312 312 311 312 312 312 314 314 314 314 313 312 312 312 312 312 312 312 312 311 312 311 310 309 309 312 315 315 316 316 315 315 319 321 319 317 314 310
301 302 301 301 303 303 303 303 301 300 301 301 301 302 301 301 301 301 302 303 303 303 303 304 304 304 304 304 305 305 305 306 306 307 308 309 309 309 310 311 312 311 309 310 310 310 310 312 312 312 312 312 311 312 311 309 310 312 313 313 313 313 313 312 312 312 312 312 312 313 312 311 310 310 310 313 315 315 315 315 314 316 319 318 317 315 312 307
300 300 300 302 304 304 303 303 302 301 301 301 301 301 301 302 301 301 301 302 303 303 303 303 303 303 304 304 305 305 304 305 305 306 309 309 309 309 310 310 311 310 310 310 310 310 310 311 311 312 312 312 311 312 311 309 310 311 312 312 312 313 313 312 312 312 312 312 312 313 313 311 312 314 313 313 314 314 313 313 313 315 316 315 314 313 310 306
Wind_Speed
21 21 20 19 18 18 18 18 17 16 15 15 14 14 15 16 16 15 13 12 11 10 10 10 9 7 7 7 7 8 10 12 15 15 13 12 9 7 7 8 7 3 1 4 6 7 7 5 5 7 7 4 0 1 2 1 1 3 2 3 2 4 4 4 5 3 2 2 5 5 2 5 1 2 0 2 6 4 3 5 3 5 7 4 3 13 24 27
22 22 21 20 19 19 19 18 18 18 16 16 15 14 14 15 16 17 15 14 12 12 10 10 9 7 7 6 6 7 10 13 16 18 18 14 12 13 12 13 12 7 4 4 2 2 2 1 5 8 3 0 1 1 1 1 2 3 3 2 4 5 5 4 5 2 1 1 5 4 2 2 2 1 0 1 4 4 4 3 4 6 7 7 9 18 25 26
22 21 22 21 21 20 20 19 19 18 18 17 16 15 15 14 15 16 17 16 14 13 11 11 9 7 7 6 5 6 10 12 11 13 14 8 8 11 10 14 15 11 10 9 4 1 1 2 6 4 1 1 2 1 1 2 2 2 3 2 6 6 4 4 3 1 1 2 3 4 3 3 2 2 1 2 1 3 2 2 2 2 1 2 5 13 20 22
22 21 22 22 22 21 20 20 20 19 18 17 17 16 16 15 15 15 17 18 16 15 13 12 10 8 7 6 5 6 7 7 4 4 3 0 3 7 8 11 15 14 13 11 8 5 4 4 5 2 2 1 3 1 1 3 2 2 3 5 6 4 3 7 2 2 3 1 1 3 4 3 4 2 1 4 3 2 4 5 5 6 7 7 5 9 16 17
22 22 22 22 22 22 21 20 20 20 19 18 17 17 17 17 15 15 16 18 18 16 15 12 10 8 6 5 5 6 4 3 2 2 4 3 6 9 11 10 13 16 14 12 9 6 6 4 3 2 2 2 1 2 3 4 2 1 3 5 5 4 3 8 3 4 1 2 3 4 4 2 2 2 0 4 4 4 5 5 7 8 11 13 11 12 13 14
23 23 22 23 22 22 22 21 20 20 20 19 18 17 17 17 17 15 15 17 18 17 16 14 12 8 5 5 4 4 1 1 2 4 5 6 10 13 11 7 13 16 16 13 9 5 4 1 2 1 2 2 3 3 4 3 2 2 4 3 4 4 4 6 4 2 2 2 3 2 4 1 1 3 3 5 5 7 6 5 7 7 13 17 15 14 12 12
23 23 23 23 22 22 22 22 21 20 20 20 19 18 18 18 17 16 15 16 18 18 17 15 13 9 7 6 3 2 1 4 6 6 3 6 9 14 13 1 11 14 16 13 8 3 2 2 2 3 4 2 4 4 4 2 2 2 3 4 4 6 6 6 5 5 1 4 6 2 2 3 4 5 2 4 7 8 6 6 5 5 12 15 13 13 13 15
24 23 23 23 23 23 22 22 22 21 20 20 20 19 18 19 18 17 15 15 16 17 17 17 14 10 9 6 3 1 1 9 11 8 7 1 6 11 13 3 8 13 15 13 10 6 3 4 4 3 3 3 3 3 3 1 1 3 5 5 2 4 5 6 6 7 6 5 5 2 2 5 8 4 2 6 8 8 6 5 4 6 9 11 11 12 12 13
24 24 24 23 23 24 24 23 22 21 21 20 20 20 19 19 18 17 15 15 14 15 17 18 16 12 10 6 3 1 6 15 14 9 11 8 5 7 8 4 5 11 13 12 13 10 5 5 5 3 3 4 3 2 1 1 3 4 5 5 3 4 5 5 5 6 8 4 2 1 4 7 6 2 4 8 8 8 6 4 4 7 8 8 9 11 12 12
24 24 25 25 23 24 24 23 22 21 21 21 20 21 20 19 18 17 16 16 14 14 15 18 18 13 12 8 4 4 7 11 13 11 12 12 11 11 9 5 5 11 11 10 13 11 6 5 5 4 3 2 3 2 2 4 4 2 1 3 4 6 6 4 5 6 6 4 2 3 7 8 5 3 5 6 7 8 6 7 5 5 7 9 8 9 12 12
23 24 25 25 24 24 23 23 22 21 21 22 21 21 21 20 19 18 17 17 15 14 13 16 19 16 16 11 5 7 5 2 6 6 7 9 11 11 11 9 7 12 11 9 12 11 8 7 3 2 2 2 3 2 2 3 2 3 3 5 5 5 5 4 5 6 3 4 5 2 7 9 2 4 8 6 6 6 6 8 8 5 6 8 9 9 9 12
23 24 24 24 24 24 24 23 23 23 23 21 21 21 21 21 20 19 19 18 16 16 13 14 19 19 16 10 10 16 12 4 4 2 3 4 7 9 10 10 9 12 14 9 10 13 11 8 3 1 3 2 3 1 3 3 1 2 3 3 7 6 5 5 4 4 3 4 4 1 6 9 6 8 9 7 6 5 6 8 8 8 7 6 8 8 7 12
22 23 24 24 24 25 24 24 23 24 24 22 22 21 21 21 20 19 19 19 18 17 15 13 16 19 15 7 12 26 25 13 6 4 4 4 4 7 8 9 8 10 14 11 9 11 9 6 3 4 2 2 2 2 1 0 1 2 2 2 4 6 6 6 4 3 4 4 3 3 4 7 8 11 9 6 6 6 7 9 9 8 8 7 6 6 7 11
23 23 24 23 24 25 24 24 24 24 23 23 23 22 21 21 21 20 18 20 19 16 15 14 15 17 13 4 5 21 30 22 16 10 6 5 4 7 10 10 8 8 12 11 7 7 5 3 3 2 1 2 1 2 3 4 1 1 2 2 2 2 5 5 3 5 5 6 4 5 6 7 8 10 9 6 6 7 9 11 10 8 8 7 6 6 7 9
24 23 24 23 23 24 24 24 24 25 23 23 23 21 21 21 21 20 18 19 18 17 15 14 16 12 6 5 4 15 23 23 26 19 10 7 4 6 12 12 12 11 10 10 7 4 4 3 2 1 2 1 1 2 3 3 3 1 3 2 2 4 5 6 4 6 7 6 4 6 6 7 8 10 10 9 7 8 10 11 10 8 8 8 7 7 8 9
24 24 24 23 22 23 23 23 24 25 24 22 23 22 21 22 21 20 19 18 17 17 14 11 17 14 5 4 5 10 15 19 26 24 16 13 7 4 9 12 12 11 9 9 8 4 4 3 1 2 1 0 3 3 3 1 3 3 2 3 2 5 4 5 6 6 9 6 4 7 7 5 7 8 9 9 9 9 9 10 10 8 8 8 7 7 8 9
24 25 24 22 23 22 22 24 24 24 24 22 22 22 20 20 20 19 18 18 17 17 16 11 12 13 6 2 5 6 11 17 25 26 22 19 11 6 8 9 7 8 7 6 7 3 2 1 1 1 1 1 3 4 3 3 3 3 1 3 3 4 4 3 5 5 6 6 6 8 8 8 11 11 9 7 7 8 8 9 10 8 8 8 7 8 8 8
24 25 24 22 22 23 22 23 23 24 24 22 21 20 18 20 21 18 16 17 15 12 15 11 8 9 7 6 7 4 9 18 24 25 23 19 14 9 9 7 5 8 6 3 3 3 1 1 2 0 1 2 3 5 6 7 7 7 6 5 4 4 5 4 4 3 2 4 7 7 7 10 14 14 12 9 6 6 8 10 9 9 8 7 7 7 7 9
25 25 25 22 21 23 22 21 22 23 22 21 21 18 15 16 17 16 16 15 10 6 7 7 10 6 2 6 9 7 12 19 19 18 20 18 14 12 10 8 6 7 5 2 3 4 3 2 3 4 6 8 8 10 10 7 10 12 8 6 5 5 6 5 5 5 3 3 7 9 9 11 13 14 14 12 8 7 8 8 7 8 7 6 6 6 7 9
24 25 25 22 21 22 22 21 21 22 21 20 20 15 9 8 7 7 11 10 10 11 5 3 11 8 2 1 6 8 11 17 15 14 22 21 16 12 7 5 5 4 5 5 5 4 5 5 7 10 11 12 12 12 9 4 6 8 4 4 6 5 6 5 5 7 5 5 8 9 10 11 12 13 15 13 9 9 9 8 8 8 7 7 7 7 8 8
24 25 24 23 22 21 21 22 21 21 21 20 19 10 3 7 7 3 6 6 10 16 12 6 10 12 5 4 8 11 7 11 13 12 23 24 16 12 5 4 7 6 6 5 4 3 4 9 13 14 11 9 9 8 7 5 4 5 5 6 6 6 6 5 6 7 4 4 5 8 10 12 11 11 13 11 8 10 12 12 12 11 9 8 7 9 9 8
23 24 24 24 23 21 21 22 22 22 21 20 20 12 5 9 9 2 4 4 10 17 17 14 11 10 7 7 11 13 4 5 10 9 17 19 12 9 5 5 8 7 6 5 3 4 7 11 14 12 7 5 6 7 8 8 7 4 4 5 4 4 3 5 6 6 3 3 4 7 8 10 10 9 11 11 8 8 11 13 12 11 10 8 8 9 10 9
23 24 24 23 22 23 22 21 22 22 21 20 19 16 13 13 11 5 3 1 5 12 13 15 13 9 8 7 8 11 5 6 10 10 17 17 10 8 7 7 9 7 7 8 8 9 9 10 9 9 7 7 7 9 9 7 7 7 4 4 4 4 3 3 5 5 4 5 4 5 7 8 8 8 9 10 9 7 9 10 9 8 9 9 10 9 9 11
22 24 24 23 23 23 22 22 21 20 22 20 20 23 21 17 15 8 3 0 4 5 12 18 15 9 10 8 9 11 7 6 9 11 19 18 9 7 8 9 11 8 9 14 14 11 9 5 8 11 8 10 9 8 10 8 6 7 7 7 4 4 6 4 3 4 4 4 2 3 8 9 7 9 10 8 9 8 7 8 7 6 7 8 8 9 9 10
23 23 24 24 22 21 23 21 19 20 20 19 22 27 26 19 16 10 2 1 4 2 7 14 10 11 15 11 10 10 5 5 8 12 20 21 14 9 6 5 7 10 13 15 12 10 10 4 8 12 10 12 11 8 11 10 6 7 9 10 8 6 6 4 1 3 4 5 3 3 4 8 4 9 11 7 8 8 5 6 8 7 7 7 7 9 9 9
25 23 24 24 21 22 20 12 14 19 16 18 24 26 26 21 15 12 4 2 5 3 5 10 7 13 20 12 8 6 5 8 7 11 19 22 18 11 8 5 4 9 13 10 6 5 7 4 7 11 12 13 11 8 10 10 7 7 6 9 8 7 7 7 4 1 2 5 4 1 4 7 4 5 8 6 7 8 6 6 8 7 7 7 8 8 9 9
24 23 23 24 23 21 13 4 10 16 10 15 24 22 23 23 14 10 5 4 6 5 7 8 7 14 18 16 17 9 5 7 6 6 14 20 17 7 8 10 5 6 7 5 5 4 5 7 6 9 11 10 9 9 9 10 8 5 6 11 10 9 8 8 6 5 4 3 5 3 3 6 8 5 6 6 5 7 7 8 9 8 8 8 9 10 10 11
24 24 24 24 24 23 17 8 9 16 16 15 19 21 23 24 17 8 3 6 4 6 7 8 8 11 10 15 22 12 4 10 10 8 13 22 19 5 6 14 12 10 10 8 9 4 7 11 12 12 11 8 10 11 10 12 8 4 7 11 10 10 10 8 6 5 2 1 7 6 3 4 9 4 4 6 7 7 8 9 10 9 9 9 10 11 11 11
25 25 26 25 23 24 25 18 11 15 22 18 14 21 25 23 14 4 4 5 2 2 4 9 10 8 7 12 17 15 9 7 7 7 11 18 16 4 4 12 13 12 12 12 13 6 4 11 15 14 11 10 11 11 11 14 9 4 7 7 4 7 7 5 6 5 2 3 11 8 6 5 9 3 4 3 5 8 8 9 9 9 10 10 10 11 11 10
25 25 27 24 21 21 21 22 21 17 18 19 18 22 25 17 8 4 8 5 2 2 2 6 11 13 14 14 12 16 16 7 2 5 7 10 11 5 1 4 7 7 8 11 14 9 1 4 10 10 9 8 8 6 7 12 9 3 5 5 5 1 2 2 2 2 3 8 12 8 11 9 8 3 6 5 5 8 8 8 7 8 10 10 11 10 10 9
26 27 28 25 23 21 14 16 28 25 17 21 26 24 17 8 4 7 8 1 1 5 3 1 8 16 21 18 11 14 17 10 7 8 7 7 9 7 3 4 5 4 6 8 11 8 1 2 5 5 6 5 5 4 3 7 8 5 5 5 3 0 0 2 0 2 6 9 5 9 13 11 8 5 5 4 6 9 10 8 8 11 11 10 11 9 9 9
27 27 27 26 24 24 20 18 26 29 22 22 26 18 7 5 6 7 4 4 1 5 5 5 8 12 19 20 15 16 18 13 10 10 10 9 7 8 8 8 8 6 7 8 8 7 3 4 4 4 4 8 7 5 3 5 7 6 5 6 5 4 2 3 3 3 6 6 1 10 12 8 10 12 7 5 6 6 8 8 9 10 10 9 9 8 7 7
28 27 27 28 26 27 29 23 20 25 26 25 20 8 4 7 8 8 6 3 3 5 3 7 11 13 16 17 13 15 16 13 12 12 12 11 8 10 12 11 12 10 7 9 9 6 4 5 6 5 4 9 11 8 6 5 7 8 7 7 7 6 4 6 5 3 4 4 2 6 6 3 7 11 10 12 13 11 9 8 9 9 9 10 9 7 7 7
29 27 28 28 28 30 31 26 20 23 28 24 12 6 8 9 6 10 11 6 2 2 1 4 11 15 15 14 13 14 13 11 15 15 14 12 6 6 10 11 15 11 6 9 9 8 10 7 9 11 6 8 14 12 9 7 7 9 8 7 8 7 5 6 6 4 4 3 3 3 2 5 6 3 5 10 12 14 13 12 13 11 9 8 6 6 7 8
30 29 29 27 29 31 31 29 25 26 26 16 5 8 12 9 5 7 9 6 2 0 1 4 11 12 11 11 12 14 11 9 15 16 13 13 8 6 10 10 14 12 7 8 6 7 12 7 8 15 10 10 15 12 8 9 6 7 6 7 9 7 5 3 4 5 3 1 3 4 3 6 5 4 5 3 2 6 9 9 11 10 6 4 5 6 6 7
30 29 27 27 31 33 33 31 28 29 23 7 4 10 10 7 5 4 5 8 6 3 2 5 9 9 9 9 9 13 10 5 13 14 9 13 13 12 13 10 13 15 10 9 6 5 10 7 6 13 11 10 14 12 11 11 7 4 6 9 7 3 6 2 4 2 3 1 4 5 5 5 5 8 8 5 3 2 4 4 6 6 1 2 1 3 2 3
28 24 21 26 32 32 32 32 30 29 17 4 6 10 6 4 4 3 4 7 7 7 5 5 6 8 9 8 8 13 10 5 12 12 6 11 13 13 16 12 13 17 14 11 7 4 7 5 2 11 15 13 10 10 10 11 9 6 8 9 3 3 3 3 4 1 3 3 4 7 9 6 5 6 3 5 9 5 1 1 3 3 5 6 3 1 2 1
26 18 16 26 36 31 30 34 33 23 7 3 11 12 6 4 4 2 3 5 6 6 5 5 6 7 10 10 9 13 13 8 11 11 8 9 7 13 19 12 11 17 16 12 7 3 5 4 4 9 17 11 6 8 8 9 6 3 6 8 6 2 5 5 5 5 5 6 4 5 9 7 7 7 2 4 9 5 4 5 6 6 6 6 4 2 2 2
21 11 10 25 36 32 32 35 28 14 4 5 12 11 6 4 4 4 4 3 6 6 5 6 5 5 9 11 9 12 14 12 12 10 9 8 5 12 21 13 10 16 16 13 7 2 5 4 4 6 10 8 6 7 8 8 4 1 4 6 2 3 6 6 6 6 6 7 6 5 6 5 6 7 6 7 8 6 6 6 6 7 6 6 5 3 2 2
15 7 5 21 35 35 36 31 16 6 6 9 10 6 4 4 4 7 8 6 3 4 6 8 6 4 6 8 8 9 11 12 13 10 9 10 7 10 16 14 12 15 17 15 9 2 2 5 4 3 3 5 6 8 11 13 9 5 6 6 3 2 2 1 3 5 5 6 5 6 6 4 3 5 9 11 9 8 9 8 8 7 6 6 5 3 1 1
9 8 5 23 40 39 33 18 7 6 7 9 9 5 4 4 3 7 11 11 5 1 3 6 7 5 5 6 6 6 8 9 10 10 8 10 10 7 12 16 15 16 16 13 10 5 3 5 7 3 3 6 8 11 15 15 11 9 9 9 8 6 3 2 5 5 4 5 5 5 5 5 4 4 7 9 9 8 8 10 9 7 7 6 5 4 3 1
7 8 9 32 47 41 24 7 5 8 8 9 10 7 6 5 5 7 9 10 8 4 0 1 4 6 4 5 5 4 6 8 10 11 7 10 13 9 11 17 17 18 16 12 14 11 3 3 6 4 4 7 7 7 8 8 9 9 9 10 10 9 8 8 9 6 4 4 4 2 4 6 5 5 6 7 7 7 8 9 9 7 7 6 5 3 1 3
6 5 17 44 54 39 16 6 7 7 8 10 11 10 8 5 5 7 8 8 7 4 2 2 3 6 5 5 5 5 5 6 10 13 10 10 13 11 12 17 17 16 14 11 12 10 2 2 6 4 1 2 5 4 4 0 6 6 7 9 10 11 11 9 6 5 3 4 5 4 6 8 6 5 6 5 6 7 6 7 7 6 5 4 2 2 4 6
5 2 10 38 56 38 13 8 10 9 11 12 10 10 8 5 6 8 8 9 7 5 6 6 4 5 4 4 6 8 7 5 6 10 10 8 9 8 10 17 17 14 12 11 10 10 6 4 7 5 1 1 3 3 3 3 6 6 8 11 11 11 9 3 1 3 3 6 10 8 7 8 5 3 4 4 4 6 6 7 6 6 4 2 3 5 5 6
4 1 1 18 38 28 11 10 11 10 12 13 13 13 10 6 7 9 9 9 9 7 7 8 7 5 3 4 4 6 7 6 5 6 7 6 4 4 9 17 18 12 12 15 13 10 8 7 8 9 8 7 8 8 8 8 6 3 3 8 12 12 11 7 5 6 5 6 9 8 7 8 6 5 5 4 4 6 9 6 2 3 4 3 5 6 5 5
3 3 1 5 13 13 9 10 10 8 10 11 10 13 14 10 7 9 10 9 9 10 8 7 7 6 3 5 6 5 5 7 6 3 3 5 3 2 7 17 19 16 16 17 13 8 4 6 11 13 13 13 12 12 11 10 9 7 8 13 16 16 16 13 8 8 8 7 8 9 8 9 11 11 9 6 6 10 10 5 4 4 5 4 5 5 5 5
2 2 5 4 5 9 9 8 11 11 13 14 10 10 16 16 10 7 10 9 9 11 9 7 7 9 9 8 7 6 6 7 7 4 4 4 2 3 3 9 16 21 21 15 11 8 4 8 15 16 15 16 14 11 11 13 15 17 18 20 20 18 19 16 12 13 13 9 10 11 10 12 15 17 14 10 10 11 9 6 6 6 6 5 5 6 5 4
2 2 4 2 2 8 12 14 18 19 19 18 12 11 16 19 15 10 9 9 9 9 8 8 9 13 15 13 8 6 6 6 6 7 6 5 3 2 3 3 11 20 19 11 7 7 5 9 16 17 15 16 13 8 9 13 15 18 20 21 21 21 21 20 18 19 16 12 12 15 16 17 16 17 19 16 12 10 8 6 6 5 6 7 6 7 7 6
2 0 2 0 1 6 13 19 22 20 19 16 10 12 16 19 20 15 9 7 9 10 10 11 14 15 16 15 11 8 8 7 7 8 7 7 8 6 1 2 7 12 14 10 7 5 4 8 14 15 14 17 14 7 9 13 14 15 19 21 21 21 21 21 20 21 20 17 15 17 20 17 13 17 20 13 7 7 5 4 5 5 5 6 6 7 7 6
2 1 3 2 1 4 7 11 15 14 14 13 10 11 13 16 21 17 11 11 12 12 13 16 17 16 17 17 15 14 14 12 11 11 9 9 9 8 6 4 3 4 7 8 6 4 6 9 12 12 11 15 15 10 9 12 14 16 18 18 17 15 15 16 17 17 18 17 16 17 17 13 12 17 16 4 6 7 5 5 8 7 4 5 6 6 7 7
3 1 4 4 4 5 5 7 12 13 11 11 13 14 13 18 23 19 13 15 18 16 17 21 20 14 14 16 17 19 20 16 16 14 11 11 10 8 7 6 6 5 4 6 5 4 7 10 8 7 7 12 15 15 14 10 8 11 14 14 14 13 12 14 16 17 17 17 17 16 13 13 13 13 10 4 7 7 8 8 9 7 6 7 7 8 8 8
3 1 3 3 4 5 6 7 11 13 11 13 18 20 19 23 24 19 12 12 18 19 18 23 24 15 11 16 21 25 24 19 17 11 8 8 9 7 7 8 10 10 8 7 5 2 5 8 6 6 6 10 15 17 15 9 5 7 9 12 16 17 17 16 15 18 18 16 15 13 13 17 13 6 7 8 8 9 10 9 9 7 8 8 8 8 9 8
Wind_Direction
269 268 268 270 270 267 263 263 265 265 266 267 266 266 261 258 257 256 252 248 252 256 257 262 269 286 302 308 303 302 304 302 305 301 279 263 276 273 224 206 205 187 242 278 270 259 275 282 286 330 345 335 331 228 292 289 93 68 99 139 195 194 199 193 177 190 161 298 301 317 13 125 164 324 317 353 27 33 47 40 25 22 24 34 101 137 148 159
271 268 267 266 265 266 264 261 262 262 262 264 265 265 264 259 254 254 253 251 250 251 253 258 265 276 291 305 303 300 301 305 309 295 275 268 279 268 239 225 221 210 225 271 263 198 200 259 326 353 13 266 263 249 287 288 143 125 129 159 215 198 215 206 169 212 103 328 313 333 350 97 145 247 27 64 347 12 71 14 18 33 20 40 93 130 145 156
269 269 267 265 263 263 264 261 259 259 259 259 261 261 262 261 257 254 253 254 254 252 250 251 262 273 281 298 305 298 303 314 310 284 275 273 276 277 260 231 220 217 229 251 258 181 165 319 335 351 100 195 265 248 184 260 210 173 139 173 236 209 245 267 158 161 302 291 322 344 355 14 317 259 32 137 37 29 156 223 73 55 287 100 108 136 147 157
268 267 266 266 264 262 262 261 258 257 258 257 257 258 260 260 259 256 252 251 253 256 252 248 256 263 272 287 295 290 304 324 299 260 263 311 326 327 306 248 219 215 224 242 249 249 288 327 340 340 133 207 293 33 171 241 211 183 161 184 231 194 235 273 183 156 300 313 112 336 355 5 315 332 55 167 125 355 240 211 185 192 185 169 169 157 157 163
267 266 266 265 264 263 261 260 258 257 256 256 255 255 257 258 257 257 253 248 248 252 254 251 249 248 264 273 282 289 308 333 267 149 97 48 2 344 320 271 224 214 216 231 243 254 281 309 8 27 95 195 254 81 217 243 154 172 230 197 211 161 204 269 247 167 240 19 39 343 322 301 313 1 174 172 157 227 228 198 201 192 171 169 174 170 170 172
267 265 264 263 263 262 260 259 257 256 255 255 253 252 254 255 254 255 254 249 243 246 251 252 243 231 238 251 271 271 215 257 227 117 83 43 15 351 333 265 218 212 212 225 242 249 268 304 66 128 124 181 204 191 231 259 121 179 262 231 218 193 210 268 280 209 117 17 311 292 279 298 13 297 243 185 194 221 214 201 208 186 171 169 166 167 174 184
266 266 264 262 261 260 259 258 255 254 253 253 252 251 251 250 251 251 252 250 243 241 245 249 242 221 221 238 254 245 171 267 237 156 114 44 22 0 0 250 198 207 208 212 222 212 199 165 156 161 136 175 207 208 235 275 75 141 247 277 242 209 220 248 266 278 186 182 230 233 313 302 243 254 238 197 235 241 229 226 219 169 161 159 160 174 184 189
264 264 264 262 260 259 258 256 255 253 251 251 251 249 249 249 248 247 248 249 245 240 238 243 240 217 215 219 209 242 252 249 233 189 205 256 23 10 12 31 182 198 201 201 199 182 174 181 199 159 134 216 197 207 259 321 357 175 220 257 241 207 230 249 262 281 273 209 203 200 227 247 234 238 238 225 245 252 236 217 183 128 142 156 172 187 191 194
264 262 262 261 259 258 257 255 253 251 249 250 249 247 248 248 247 246 245 246 245 240 235 237 235 215 206 199 151 226 245 241 233 206 216 239 307 328 350 0 186 194 193 199 199 190 187 182 204 183 162 218 185 226 267 109 235 207 208 238 242 258 261 273 280 281 287 264 167 220 248 252 244 249 264 233 231 246 254 239 179 133 148 178 190 194 198 200
263 262 261 260 258 256 257 254 251 250 248 248 247 245 246 246 246 244 242 244 244 241 236 233 232 216 198 185 146 218 253 252 236 223 228 248 279 279 282 293 226 201 192 196 199 195 198 192 201 178 150 212 184 218 194 160 234 259 282 270 250 258 269 281 283 275 289 286 242 254 263 264 242 211 257 249 237 242 254 266 245 166 174 195 204 206 206 208
261 261 260 260 259 256 255 253 250 250 247 246 245 243 245 245 245 244 241 242 242 242 239 232 231 217 197 184 169 220 240 223 208 223 243 254 270 261 252 257 235 208 198 198 206 205 212 225 229 145 153 202 177 222 247 187 240 300 292 299 287 279 285 271 269 269 274 283 269 256 275 278 243 203 237 243 247 231 222 251 261 240 214 204 211 216 212 217
262 261 259 258 258 256 254 252 250 249 247 245 243 242 244 243 244 244 242 242 242 242 238 233 234 221 200 193 209 221 224 192 181 222 226 235 258 247 232 236 240 219 203 197 214 214 224 255 281 221 228 183 158 194 249 204 140 263 238 282 297 318 305 249 233 244 201 246 267 11 302 275 241 237 238 227 237 225 219 244 255 252 246 222 216 219 218 227
263 262 260 258 257 256 255 252 249 249 248 247 244 242 242 242 242 242 241 240 241 241 236 230 236 227 213 214 223 226 232 226 219 232 191 186 247 231 206 215 236 223 204 198 214 219 230 265 231 221 248 129 183 222 237 266 123 233 202 203 288 321 297 239 199 199 186 226 207 124 274 251 237 252 251 232 227 225 234 245 247 249 252 242 225 220 225 232
260 260 261 258 257 256 254 252 250 249 247 248 246 241 241 240 239 240 240 240 238 240 238 226 226 228 228 244 229 233 237 234 238 239 192 190 222 202 192 198 202 197 200 205 220 230 230 235 184 216 302 141 220 321 12 5 22 194 187 201 229 255 273 261 209 174 193 249 181 151 249 247 249 262 265 255 216 210 230 240 241 242 249 252 243 238 241 237
259 258 258 258 258 257 256 253 251 249 243 245 248 243 241 241 238 238 239 239 236 236 240 233 220 218 245 263 240 236 234 231 237 231 204 208 211 188 194 192 191 193 203 213 224 227 197 183 139 151 273 247 111 47 15 355 359 60 173 244 261 209 266 299 271 188 198 256 190 175 250 266 263 256 253 249 215 207 225 236 240 241 251 259 259 252 254 252
260 257 255 256 257 256 256 254 252 251 243 240 246 244 240 241 239 238 238 238 237 232 234 236 216 210 257 264 209 218 215 217 223 216 209 217 213 194 192 187 191 194 196 199 200 189 155 139 121 166 226 6 135 108 48 358 323 352 165 217 244 205 237 287 285 229 203 232 219 210 239 275 274 255 247 246 230 219 225 242 247 246 251 255 259 254 251 257
259 257 254 252 255 253 253 253 251 250 244 237 242 244 240 241 241 241 242 237 236 233 231 231 201 202 250 247 177 202 204 206 211 209 213 214 209 202 181 173 177 170 159 158 168 171 138 130 156 178 100 118 156 122 102 205 240 317 213 211 233 203 194 221 285 275 198 203 231 234 240 255 264 266 270 269 248 225 219 238 245 243 246 246 252 258 256 255
259 258 254 250 255 255 251 252 249 247 245 237 237 243 242 240 240 246 248 236 233 236 239 236 185 190 235 201 171 190 199 200 203 207 210 205 204 209 184 162 146 144 134 105 153 170 173 130 135 155 214 189 170 158 188 202 188 198 197 198 230 215 203 211 242 263 162 187 226 240 250 252 260 267 268 268 256 227 222 230 235 238 241 244 252 259 262 259
258 258 254 249 252 256 253 251 248 244 243 238 236 242 243 238 241 247 242 227 215 211 231 215 182 188 265 191 170 172 197 197 196 202 203 196 195 200 187 164 144 143 148 169 187 178 166 140 150 196 218 206 195 194 200 187 179 195 193 184 197 203 224 232 229 247 256 249 242 239 244 246 252 260 260 258 247 228 233 238 240 240 238 239 246 250 258 263
257 256 255 250 246 251 252 249 248 242 239 236 229 230 234 222 226 240 224 215 215 220 244 186 189 205 11 117 167 160 184 191 191 200 198 192 179 175 181 154 135 150 174 176 175 177 173 186 203 206 209 205 201 202 203 183 177 190 186 197 197 198 238 244 239 254 235 237 256 243 246 250 247 253 256 254 245 236 242 245 244 243 245 246 244 250 255 254
255 255 255 252 246 248 249 247 244 239 238 231 219 214 206 196 196 196 190 214 236 232 253 261 216 227 215 153 164 153 150 187 197 207 200 192 168 158 182 167 162 185 185 158 151 168 182 206 215 210 206 198 189 192 204 214 193 178 184 209 216 210 239 243 241 263 220 194 254 249 254 258 247 249 257 256 242 237 239 239 243 243 246 251 250 254 257 257
252 252 251 251 248 248 249 246 239 236 237 225 214 214 223 210 206 178 154 216 242 224 236 248 237 248 222 176 177 169 133 180 197 211 197 185 167 169 189 178 179 184 166 147 160 188 210 224 217 204 188 143 156 181 197 214 216 213 184 186 223 216 249 279 258 264 232 200 259 263 261 263 254 249 253 252 236 228 233 232 233 233 235 240 240 245 252 259
250 250 248 247 247 246 247 246 238 236 234 222 212 213 221 216 210 210 153 165 257 212 217 233 231 240 223 209 193 181 180 178 189 210 189 176 174 179 169 170 184 178 165 182 195 194 213 228 205 183 158 142 172 189 189 206 218 223 201 180 220 192 167 264 265 261 247 226 244 275 275 266 256 253 254 251 240 229 234 237 232 221 222 228 232 239 242 245
249 250 248 243 242 243 244 245 241 236 233 227 222 220 220 215 214 217 156 165 272 213 206 215 218 226 220 214 193 192 210 188 185 201 186 177 168 164 171 175 178 180 188 198 203 209 225 227 169 169 164 171 191 192 186 201 218 222 219 208 209 184 187 222 272 299 303 271 253 342 304 275 234 231 245 246 245 244 236 242 249 236 225 229 240 248 245 241
249 248 247 241 237 239 241 242 239 233 229 228 228 226 221 217 220 218 162 264 251 245 213 205 205 220 214 205 185 185 211 214 203 193 184 183 169 155 179 177 172 193 201 200 202 222 239 234 163 167 169 185 197 197 192 195 207 225 224 214 203 183 204 235 287 356 343 293 295 47 298 281 220 213 235 232 237 250 238 230 243 246 241 236 242 247 247 248
250 246 245 239 232 234 238 238 232 228 224 226 228 227 220 217 218 206 181 277 234 191 175 175 170 198 199 188 159 158 201 213 206 182 180 187 182 168 176 174 187 204 196 191 201 232 230 198 161 166 177 191 199 208 201 185 198 229 205 193 201 187 199 224 212 169 227 256 284 152 221 271 278 224 239 230 229 250 257 250 247 245 246 239 239 246 247 251
249 246 243 238 231 227 228 218 212 210 208 227 226 220 216 211 195 175 181 262 233 169 154 176 179 180 184 170 154 159 204 167 149 187 186 185 188 190 186 178 182 196 169 157 212 214 157 154 159 171 182 191 201 214 197 175 195 233 170 169 191 194 199 213 198 202 226 262 292 263 186 264 278 247 219 202 214 255 264 261 256 245 245 245 244 248 246 248
247 245 241 238 232 224 221 212 187 196 209 223 218 212 211 202 180 151 209 240 195 140 151 179 177 167 169 160 160 175 184 144 159 203 189 183 187 197 207 193 186 182 161 165 210 197 131 165 176 175 184 195 207 209 183 174 197 224 168 169 186 194 202 208 201 225 256 332 267 249 157 258 274 240 185 191 203 231 243 245 250 246 244 244 243 247 248 248
245 243 241 237 234 229 226 220 199 206 216 210 204 205 197 188 177 159 245 222 138 96 164 168 164 152 146 154 169 189 189 168 185 179 168 184 191 186 222 204 191 180 170 182 208 206 164 189 182 175 190 206 209 204 180 182 204 212 163 142 141 185 198 201 208 222 184 222 243 222 155 237 272 220 171 209 211 211 224 232 237 240 241 244 246 250 252 252
245 241 241 236 233 232 226 221 220 219 214 203 195 187 176 171 175 205 233 222 177 221 183 172 171 153 152 162 179 194 192 191 176 146 152 179 192 197 235 181 166 165 178 202 216 214 203 176 170 179 203 201 194 188 178 186 189 150 131 96 62 122 147 125 193 174 176 236 240 189 163 209 266 231 169 204 207 184 203 226 232 241 245 247 250 249 252 255
244 242 240 232 229 226 212 221 223 216 211 200 182 168 165 176 196 214 222 230 269 204 134 183 185 155 160 171 176 189 193 189 163 160 164 170 188 199 178 145 144 154 183 213 227 223 286 122 170 215 213 164 135 151 183 189 176 137 124 126 108 233 101 105 106 160 205 242 228 158 173 202 241 242 175 206 224 186 192 212 219 231 239 243 251 252 254 259
242 241 238 232 229 221 214 225 220 213 213 191 169 159 170 210 213 220 203 91 316 227 154 167 194 170 170 176 175 181 188 190 173 167 173 175 185 195 196 186 167 166 187 200 216 219 226 218 240 295 219 167 147 158 192 199 186 168 145 149 167 199 204 187 199 197 216 258 209 161 179 200 236 250 243 238 253 220 202 207 211 221 234 239 247 253 253 257
241 238 236 232 226 220 222 225 215 210 205 185 171 167 200 220 212 205 200 171 221 242 195 172 178 177 173 174 180 181 183 186 175 172 181 183 186 195 207 203 178 177 190 187 197 205 206 225 236 263 236 184 174 175 188 195 190 186 176 172 183 187 197 207 210 217 223 248 227 175 173 201 247 261 248 223 231 235 223 222 218 214 227 239 247 258 269 272
241 236 234 232 225 225 225 220 213 204 192 182 182 194 205 225 212 183 198 220 232 240 267 169 167 174 176 181 185 177 181 189 177 176 183 184 189 191 202 209 194 188 178 179 194 199 198 212 207 207 209 180 186 193 181 163 177 195 188 186 199 192 193 204 196 212 241 235 208 203 199 201 206 243 230 211 224 234 228 231 236 233 239 255 277 292 293 286
237 232 231 229 226 228 223 215 212 200 187 182 199 208 206 215 205 188 197 200 191 244 262 183 171 173 179 191 192 181 187 194 179 181 187 187 193 188 189 202 198 192 177 182 199 199 209 235 207 201 199 170 184 196 165 145 176 204 177 187 216 201 161 186 201 191 205 214 195 215 238 223 226 290 280 235 226 238 234 236 243 255 269 285 291 285 281 282
231 227 225 222 223 224 217 211 204 192 187 188 220 213 214 212 192 181 195 195 177 154 194 202 182 178 181 187 196 195 198 182 173 184 196 194 197 193 191 195 194 195 190 185 193 186 206 234 190 190 206 192 185 185 172 169 176 183 183 195 217 168 123 169 245 174 107 195 217 210 243 266 279 287 272 230 208 252 284 266 238 248 260 82 318 283 281 289
225 221 217 218 221 219 212 206 195 186 187 202 224 217 207 214 211 163 190 199 165 147 176 211 191 185 187 187 192 191 184 158 178 189 192 192 199 193 192 199 194 197 200 195 203 198 197 229 175 172 198 212 188 163 182 194 170 161 199 189 134 56 114 166 230 201 125 216 235 211 224 237 236 258 269 202 216 236 329 130 154 144 111 100 95 91 88 94
217 211 216 220 217 211 206 201 190 185 191 213 223 223 196 196 227 215 217 194 159 150 174 207 205 193 189 189 196 187 177 174 186 192 191 188 198 190 188 197 198 199 206 203 212 244 194 232 305 193 193 198 141 137 191 219 192 162 191 169 126 181 204 175 202 218 203 222 255 223 221 222 211 228 244 189 208 203 145 131 127 129 125 118 123 115 67 47
204 204 231 218 209 203 198 193 185 185 208 213 223 225 200 200 205 214 259 217 170 172 188 202 202 205 200 191 189 184 182 188 184 187 198 188 195 196 187 185 193 198 206 204 204 237 189 200 281 235 195 167 139 167 199 209 207 83 147 165 161 212 198 184 201 215 209 222 246 233 221 221 208 213 221 219 210 184 167 161 156 158 153 144 138 122 69 40
186 202 230 196 195 192 185 182 179 193 211 213 228 225 182 203 189 199 236 238 194 177 200 207 192 193 213 205 202 192 188 196 191 191 201 184 187 206 190 181 182 190 202 208 207 203 173 202 235 252 188 162 173 198 200 196 191 165 166 182 198 217 190 176 215 217 208 210 227 234 233 238 219 200 208 218 219 205 189 171 170 179 175 175 173 164 193 274
167 218 202 174 180 176 169 172 182 199 214 217 227 230 188 193 181 195 218 223 232 234 185 211 208 187 187 204 220 208 189 198 199 200 206 189 191 208 195 187 180 178 191 208 216 210 178 202 208 186 166 189 202 208 208 203 185 172 185 188 186 196 186 198 224 214 198 208 212 220 242 258 252 216 211 218 215 207 188 164 168 186 185 193 213 222 234 267
170 223 160 159 168 163 156 184 199 184 218 217 213 224 202 192 199 202 205 205 222 248 233 252 223 192 182 202 220 217 197 201 200 202 210 200 200 204 193 191 184 176 181 197 209 205 163 162 201 202 194 205 220 224 222 208 178 178 199 193 189 196 189 202 221 205 188 237 241 223 255 264 251 214 214 221 196 176 169 161 166 183 188 198 229 267 350 63
190 193 141 154 162 158 153 207 193 188 223 210 207 217 203 200 204 198 197 192 197 214 218 265 225 203 211 204 202 220 218 210 205 203 204 203 209 209 188 187 186 177 179 192 199 196 166 150 196 212 278 265 278 316 350 33 167 185 215 203 197 202 197 204 212 176 167 220 220 223 245 253 249 216 205 207 177 163 173 177 169 170 191 207 198 72 79 95
182 159 139 159 162 158 161 200 187 198 210 199 204 208 200 217 211 192 192 192 189 187 199 222 225 218 223 184 187 209 207 212 226 212 205 205 210 201 177 184 189 181 182 191 182 181 193 189 191 201 178 282 263 282 312 244 197 198 213 209 206 199 187 184 173 165 193 206 203 217 238 240 255 267 239 223 174 166 200 213 177 153 178 201 117 108 113 114
149 117 325 167 161 159 182 200 182 193 199 193 202 202 198 211 206 195 192 192 198 197 199 213 205 201 206 160 185 223 209 209 233 218 209 218 211 173 168 185 193 193 198 195 179 176 192 192 196 203 196 194 203 204 205 202 196 200 198 204 211 198 179 180 210 216 220 207 200 211 230 242 272 294 264 232 188 203 226 229 165 152 190 169 132 137 138 127
159 159 218 177 164 170 196 192 179 190 192 188 199 204 203 207 203 195 194 198 203 200 210 221 196 189 207 183 195 227 219 212 221 221 205 211 221 193 180 189 193 199 206 198 178 163 179 207 213 212 210 209 211 209 196 173 173 189 188 195 207 203 193 194 206 215 213 212 215 214 214 235 255 257 242 207 198 224 229 196 153 196 208 172 149 152 138 125
187 184 178 174 173 181 188 188 189 196 191 186 192 197 201 207 209 190 191 203 201 196 213 226 193 194 208 200 203 216 202 197 210 223 218 205 243 321 252 204 199 201 204 197 183 174 178 214 218 219 222 224 225 218 189 171 182 195 197 201 206 203 199 199 206 212 209 214 229 222 208 222 242 245 238 220 210 224 230 202 185 199 192 170 160 147 134 135
189 181 192 193 189 187 185 187 193 196 191 186 188 190 194 203 206 196 191 199 198 193 206 221 211 209 211 204 205 212 190 180 195 206 204 193 196 302 328 267 218 209 203 197 195 193 198 217 216 216 224 230 233 222 185 184 194 198 200 205 206 203 201 201 209 213 209 212 227 226 218 220 234 244 244 234 215 212 223 218 207 195 168 157 156 149 144 148
183 116 213 227 313 209 200 191 188 191 190 185 189 197 195 199 204 203 188 180 199 203 203 215 217 213 214 210 205 213 202 188 200 204 188 182 193 199 213 282 247 224 206 203 209 194 191 220 217 213 222 229 228 208 188 200 204 203 207 207 207 207 204 203 210 214 216 219 223 229 233 230 229 242 250 245 202 184 197 210 227 227 182 149 142 142 141 140
169 193 184 174 232 224 213 193 179 183 190 187 198 208 201 203 206 205 190 177 193 199 197 213 219 210 213 212 209 221 220 204 211 211 185 178 193 200 199 202 224 220 197 200 209 194 202 219 213 204 217 231 226 211 207 213 209 207 209 210 209 206 204 209 214 216 221 226 226 233 243 246 238 242 249 243 123 148 171 199 230 237 197 155 149 152 153 153
194 197 150 173 214 186 179 184 177 184 190 187 199 203 201 208 206 201 198 193 196 195 190 204 213 209 211 212 211 225 225 213 216 215 190 188 200 195 195 193 177 167 182 203 202 190 207 218 207 186 209 229 222 215 217 223 228 223 214 207 203 198 200 208 210 212 213 216 223 230 239 245 243 236 229 180 139 170 190 197 216 223 194 177 176 174 169 164
196 217 129 172 217 178 171 186 180 185 193 197 203 200 199 208 203 191 196 206 206 206 196 199 205 202 205 209 212 221 222 215 219 216 182 198 214 197 192 195 182 175 181 200 210 203 207 218 205 171 199 229 222 215 212 205 225 241 217 203 199 199 203 206 209 217 214 207 214 219 224 234 231 190 188 194 180 198 212 203 203 208 202 198 191 180 174 173